GW5110 Weather Reports


time (UTC)temp
C
wind
direction
speed
KPH
gust
KPH
rain 1hr
cm
rain 24hr
cm
rain mn
cm
humidity
%
barometer
mb
20260503032632 3 266 1.6 1.6 0.00 0.00 0.00 73 1019.5
20260503032131 3 253 0.0 3.2 0.00 0.00 0.00 73 1019.5
20260503031627 3 254 1.6 1.6 0.00 0.00 0.00 73 1019.4
20260503031125 3 270 0.0 0.0 0.00 0.00 0.00 72 1019.4
20260503030621 3 260 0.0 1.6 0.00 0.00 0.00 73 1019.3
20260503030117 3 252 0.0 1.6 0.00 0.00 0.00 72 1019.4
20260503025614 3 241 0.0 0.0 0.00 0.00 0.00 71 1019.3
20260503025113 3 239 1.6 3.2 0.00 0.00 0.00 71 1019.4
20260503024608 3 95 0.0 1.6 0.00 0.00 0.00 71 1019.1
20260503024106 3 279 0.0 0.0 0.00 0.00 0.00 70 1019.1
20260503023602 3 252 1.6 3.2 0.00 0.00 0.00 70 1019.3
20260503023100 3 254 1.6 3.2 0.00 0.00 0.00 70 1019.4
20260503022555 4 274 0.0 0.0 0.00 0.00 0.00 68 1019.1
20260503022050 5 126 0.0 0.0 0.00 0.00 0.00 67 1019.4
20260503021547 5 255 0.0 1.6 0.00 0.00 0.00 65 1019.0
20260503021044 5 170 0.0 6.4 0.00 0.00 0.00 64 1019.3
20260503020541 5 263 0.0 4.8 0.00 0.00 0.00 65 1019.3
20260503020038 4 227 1.6 3.2 0.00 0.00 0.00 66 1019.1
20260503015535 5 220 0.0 0.0 0.00 0.00 0.00 66 1019.1
20260503015032 5 246 1.6 1.6 0.00 0.00 0.00 65 1018.9
20260503014528 5 266 0.0 0.0 0.00 0.00 0.00 64 1019.1
20260503014026 5 231 1.6 9.7 0.00 0.00 0.00 64 1019.0
20260503013523 5 248 1.6 1.6 0.00 0.00 0.00 63 1018.8
20260503013021 5 290 0.0 1.6 0.00 0.00 0.00 63 1019.0
20260503012518 5 245 3.2 3.2 0.00 0.00 0.00 62 1018.8
20260503012014 5 251 3.2 3.2 0.00 0.00 0.00 61 1018.8
20260503011511 5 251 0.0 0.0 0.00 0.00 0.00 61 1018.7
20260503011008 5 245 1.6 3.2 0.00 0.00 0.00 62 1018.7
20260503010504 5 252 1.6 4.8 0.00 0.00 0.00 64 1018.7
20260503010002 5 251 0.0 1.6 0.00 0.00 0.00 64 1018.7
20260503005459 5 279 0.0 0.0 0.00 0.00 0.00 64 1018.5
20260503004956 5 254 0.0 3.2 0.00 0.00 0.00 64 1018.5
20260503004452 5 251 0.0 0.0 0.00 0.00 0.00 62 1018.6
20260503003950 6 254 0.0 3.2 0.00 0.00 0.00 61 1018.5
20260503003447 6 247 1.6 3.2 0.00 0.00 0.00 58 1018.6
20260503002944 6 243 0.0 3.2 0.00 0.00 0.00 57 1018.5
20260503002441 7 251 1.6 1.6 0.00 0.00 0.00 54 1018.6
20260503001937 7 250 4.8 6.4 0.00 0.00 0.00 54 1018.4
20260503001434 7 255 1.6 3.2 0.00 0.00 0.00 53 1018.4
20260503000932 7 238 1.6 4.8 0.00 0.00 0.00 52 1018.4
20260503000430 7 273 3.2 6.4 0.00 0.00 0.00 52 1018.4
20260502235926 7 255 3.2 4.8 0.00 0.00 0.00 52 1018.4
20260502235422 7 254 0.0 3.2 0.00 0.00 0.00 51 1018.3
20260502234920 7 282 1.6 3.2 0.00 0.00 0.00 50 1018.2
20260502234416 8 216 1.6 6.4 0.00 0.00 0.00 50 1018.2
20260502233914 8 244 3.2 4.8 0.00 0.00 0.00 49 1018.3
20260502233409 8 250 1.6 4.8 0.00 0.00 0.00 49 1018.3
20260502232906 8 288 6.4 11.3 0.00 0.00 0.00 49 1018.1
20260502232402 8 247 6.4 11.3 0.00 0.00 0.00 48 1018.1
20260502231859 9 280 6.4 12.9 0.00 0.00 0.00 47 1018.1
20260502231357 9 256 6.4 9.7 0.00 0.00 0.00 48 1018.1
20260502230855 8 282 0.0 3.2 0.00 0.00 0.00 49 1018.2
20260502230353 8 250 4.8 6.4 0.00 0.00 0.00 48 1018.0
20260502225844 8 182 3.2 12.9 0.00 0.00 0.00 49 1018.2
20260502225340 8 301 1.6 9.7 0.00 0.00 0.00 48 1017.9
20260502224838 8 191 1.6 14.5 0.00 0.00 0.00 48 1018.0
20260502224333 8 152 4.8 9.7 0.00 0.00 0.00 47 1017.9
20260502223831 8 246 9.7 14.5 0.00 0.00 0.00 46 1017.9
20260502223329 9 222 6.4 12.9 0.00 0.00 0.00 46 1018.0
20260502222826 10 230 4.8 11.3 0.00 0.00 0.00 44 1017.7
20260502222324 10 246 11.3 16.1 0.00 0.00 0.00 45 1017.5
20260502221820 9 224 4.8 6.4 0.00 0.00 0.00 46 1017.7
20260502221316 9 248 6.4 16.1 0.00 0.00 0.00 46 1017.7
20260502220814 9 251 8.0 12.9 0.00 0.00 0.00 46 1017.4
20260502220309 9 238 6.4 9.7 0.00 0.00 0.00 46 1017.7
20260502215806 10 187 11.3 16.1 0.00 0.00 0.00 44 1017.4
20260502215305 10 287 3.2 6.4 0.00 0.00 0.00 43 1017.5
20260502214800 10 265 8.0 11.3 0.00 0.00 0.00 42 1017.3
20260502214257 10 269 3.2 16.1 0.00 0.00 0.00 44 1017.4
20260502213754 10 153 4.8 9.7 0.00 0.00 0.00 44 1017.7
20260502213251 9 243 6.4 6.4 0.00 0.00 0.00 45 1017.4
20260502212749 10 255 12.9 17.7 0.00 0.00 0.00 44 1017.3
20260502212248 10 279 3.2 9.7 0.00 0.00 0.00 45 1017.3
20260502211744 10 111 3.2 11.3 0.00 0.00 0.00 44 1017.3
20260502211240 9 252 8.0 11.3 0.00 0.00 0.00 47 1017.3
20260502210737 9 223 4.8 11.3 0.00 0.00 0.00 46 1017.3
20260502210234 10 263 6.4 9.7 0.00 0.00 0.00 47 1017.4
20260502205732 10 279 9.7 12.9 0.00 0.00 0.00 47 1017.3
20260502205227 9 242 1.6 9.7 0.00 0.00 0.00 49 1017.5
20260502204725 9 278 9.7 16.1 0.00 0.00 0.00 48 1017.7
20260502204222 10 241 3.2 12.9 0.00 0.00 0.00 46 1017.4
20260502203720 10 278 3.2 9.7 0.00 0.00 0.00 45 1017.5
20260502203218 11 163 3.2 9.7 0.00 0.00 0.00 44 1017.4
20260502202711 10 231 9.7 14.5 0.00 0.00 0.00 44 1017.4
20260502202210 10 270 9.7 16.1 0.00 0.00 0.00 45 1017.5
20260502201707 10 258 9.7 14.5 0.00 0.00 0.00 44 1017.6
20260502201204 10 243 6.4 17.7 0.00 0.00 0.00 46 1017.6
20260502200659 10 245 3.2 6.4 0.00 0.00 0.00 45 1017.6
20260502200156 10 230 9.7 16.1 0.00 0.00 0.00 45 1017.6
20260502195655 10 268 4.8 9.7 0.00 0.00 0.00 44 1017.5
20260502195150 10 284 3.2 9.7 0.00 0.00 0.00 45 1017.6
20260502194647 10 249 14.5 22.5 0.00 0.00 0.00 45 1017.3
20260502194144 10 260 9.7 17.7 0.00 0.00 0.00 44 1017.6
20260502193641 10 265 16.1 20.9 0.00 0.00 0.00 43 1017.7
20260502193138 10 291 14.5 20.9 0.00 0.00 0.00 44 1017.5
20260502192633 10 246 9.7 22.5 0.00 0.00 0.00 44 1017.6
20260502192131 10 281 16.1 22.5 0.00 0.00 0.00 43 1017.9
20260502191627 11 273 16.1 20.9 0.00 0.00 0.00 43 1017.7
20260502191125 11 268 9.7 11.3 0.00 0.00 0.00 43 1017.6
20260502190622 10 170 8.0 11.3 0.00 0.00 0.00 43 1017.5
20260502190120 10 238 8.0 20.9 0.00 0.00 0.00 43 1017.5
20260502185614 10 262 4.8 14.5 0.00 0.00 0.00 43 1017.6
20260502185111 10 218 4.8 11.3 0.00 0.00 0.00 44 1017.6
20260502184608 10 225 14.5 22.5 0.00 0.00 0.00 42 1017.6
20260502184103 11 293 8.0 11.3 0.00 0.00 0.00 42 1017.6
20260502183559 11 278 11.3 16.1 0.00 0.00 0.00 42 1017.5
20260502183056 11 284 12.9 14.5 0.00 0.00 0.00 41 1017.6
20260502182551 10 259 9.7 25.7 0.00 0.00 0.00 42 1017.9
20260502182047 11 204 9.7 17.7 0.00 0.00 0.00 42 1017.9
20260502181546 11 218 12.9 24.1 0.00 0.00 0.00 41 1017.7
20260502181044 11 220 4.8 12.9 0.00 0.00 0.00 41 1017.7
20260502180540 11 231 8.0 14.5 0.00 0.00 0.00 42 1018.0
20260502170459 11 238 9.7 14.5 0.00 0.00 0.00 40 1018.0
20260502163943 11 279 3.2 6.4 0.00 0.00 0.00 40 1018.1
20260502163438 12 322 3.2 4.8 0.00 0.00 0.00 39 1018.2
20260502162936 11 241 3.2 20.9 0.00 0.00 0.00 43 1018.3
20260502162433 11 141 1.6 12.9 0.00 0.00 0.00 41 1018.4
20260502161930 11 276 4.8 16.1 0.00 0.00 0.00 39 1018.4
20260502161427 11 255 3.2 16.1 0.00 0.00 0.00 40 1018.4
20260502160925 11 250 3.2 16.1 0.00 0.00 0.00 40 1018.6
20260502160423 11 266 9.7 12.9 0.00 0.00 0.00 42 1018.5
20260502151901 10 203 6.4 12.9 0.00 0.00 0.00 43 1018.8
20260502151357 10 261 11.3 16.1 0.00 0.00 0.00 44 1018.6
20260502150855 10 236 6.4 17.7 0.00 0.00 0.00 43 1018.8
20260502150351 10 280 3.2 9.7 0.00 0.00 0.00 43 1018.7
20260502130739 6 265 6.4 11.3 0.00 0.00 0.00 67 1019.1
20260502130237 6 297 1.6 11.3 0.00 0.00 0.00 66 1018.8
20260502123723 6 262 3.2 6.4 0.00 0.00 0.00 68 1019.0
20260502123219 5 240 0.0 1.6 0.00 0.00 0.00 69 1019.1
20260502122716 5 253 3.2 6.4 0.00 0.00 0.00 70 1019.0
20260502122212 5 186 0.0 0.0 0.00 0.00 0.00 71 1019.3
20260502121711 5 242 1.6 3.2 0.00 0.00 0.00 72 1018.9
20260502121208 5 248 3.2 4.8 0.00 0.00 0.00 72 1019.1
20260502120704 5 222 1.6 4.8 0.00 0.00 0.00 73 1019.1
20260502120201 5 257 0.0 4.8 0.00 0.00 0.00 72 1019.1
20260502115659 5 245 1.6 3.2 0.00 0.00 0.00 73 1019.0
20260502115155 5 245 0.0 0.0 0.00 0.00 0.00 73 1019.0
20260502114651 5 223 0.0 0.0 0.00 0.00 0.00 74 1018.9
20260502114149 4 245 0.0 0.0 0.00 0.00 0.00 75 1019.0
20260502113646 4 252 0.0 0.0 0.00 0.00 0.00 78 1019.3
20260502113144 4 261 0.0 0.0 0.00 0.00 0.00 79 1019.0
20260502112642 3 246 0.0 0.0 0.00 0.00 0.00 80 1019.1
20260502112139 3 258 0.0 0.0 0.00 0.00 0.00 79 1019.0
20260502111636 3 257 0.0 0.0 0.00 0.00 0.00 80 1018.8
20260502111134 3 256 0.0 0.0 0.00 0.00 0.00 82 1018.7
20260502110631 3 254 0.0 0.0 0.00 0.00 0.00 83 1018.9
20260502110128 2 230 0.0 0.0 0.00 0.00 0.00 83 1018.8
20260502105626 2 189 0.0 0.0 0.00 0.00 0.00 82 1018.8
20260502105123 2 189 0.0 0.0 0.00 0.00 0.00 81 1018.9
20260502104620 2 189 0.0 0.0 0.00 0.00 0.00 81 1018.6
20260502104117 2 203 0.0 0.0 0.00 0.00 0.00 81 1018.7
20260502103615 2 249 1.6 1.6 0.00 0.00 0.00 81 1018.7
20260502103113 2 245 0.0 1.6 0.00 0.00 0.00 81 1018.6
20260502102609 2 195 0.0 0.0 0.00 0.00 0.00 81 1018.6
20260502102106 2 254 0.0 0.0 0.00 0.00 0.00 81 1018.7
20260502101604 3 193 0.0 0.0 0.00 0.00 0.00 80 1018.9
20260502101102 3 167 0.0 0.0 0.00 0.00 0.00 80 1018.6
20260502100600 3 157 0.0 0.0 0.00 0.00 0.00 79 1018.7
20260502091032 5 254 0.0 0.0 0.00 0.00 0.00 68 1018.8
20260502090529 5 264 0.0 0.0 0.00 0.00 0.00 65 1018.8
20260502071424 6 256 0.0 3.2 0.00 0.00 0.00 66 1018.5
20260502070922 6 277 0.0 1.6 0.00 0.00 0.00 71 1018.4
20260502070420 7 280 0.0 1.6 0.00 0.00 0.00 71 1018.4
20260502065918 7 245 1.6 3.2 0.00 0.00 0.00 70 1018.5
20260502065416 7 239 3.2 4.8 0.00 0.00 0.00 69 1018.7
20260502064914 7 268 1.6 6.4 0.00 0.00 0.00 69 1018.6
20260502064411 7 266 1.6 4.8 0.00 0.00 0.00 68 1018.6
20260502063908 7 232 1.6 4.8 0.00 0.00 0.00 68 1018.7
20260502063406 7 251 4.8 11.3 0.00 0.00 0.00 67 1018.7
20260502062903 7 239 3.2 4.8 0.00 0.00 0.00 67 1018.8
20260502062400 7 306 1.6 12.9 0.00 0.00 0.00 66 1019.0
20260502061859 7 239 1.6 9.7 0.00 0.00 0.00 66 1018.9
20260502061357 7 263 1.6 11.3 0.00 0.00 0.00 66 1018.8
20260502060852 7 252 3.2 11.3 0.00 0.00 0.00 67 1018.8
20260502060348 7 237 1.6 9.7 0.00 0.00 0.00 70 1018.9
20260502055845 7 263 9.7 14.5 0.00 0.00 0.00 71 1018.9
20260502055343 7 247 1.6 14.5 0.00 0.00 0.00 73 1019.0
20260502054842 7 213 4.8 11.3 0.00 0.00 0.00 75 1019.0
20260502054339 8 270 4.8 9.7 0.00 0.00 0.00 74 1019.0
20260502053837 8 281 1.6 4.8 0.00 0.00 0.00 74 1018.9
20260502053334 8 269 3.2 9.7 0.00 0.00 0.00 74 1018.7
20260502052831 8 266 1.6 1.6 0.00 0.00 0.00 74 1018.9
20260502052329 8 207 0.0 1.6 0.00 0.00 0.00 73 1018.8
20260502051827 8 261 0.0 3.2 0.00 0.00 0.00 73 1018.9
20260502051326 8 186 1.6 4.8 0.00 0.00 0.00 72 1018.8
20260502050821 8 243 3.2 4.8 0.00 0.00 0.00 72 1019.0
20260502050318 8 265 3.2 3.2 0.00 0.00 0.00 72 1018.8
20260502045815 8 238 3.2 6.4 0.00 0.00 0.00 72 1018.7
20260502045311 8 281 1.6 3.2 0.00 0.00 0.00 71 1018.8
20260502044809 8 233 4.8 6.4 0.00 0.00 0.00 71 1018.8
20260502044305 8 275 0.0 1.6 0.00 0.00 0.00 71 1018.7
20260502043802 8 267 3.2 9.7 0.00 0.00 0.00 71 1019.1
20260502043259 8 229 4.8 4.8 0.00 0.00 0.00 70 1019.0
20260502042759 8 243 6.4 9.7 0.00 0.00 0.00 70 1019.1
20260502042256 8 267 3.2 4.8 0.00 0.00 0.00 70 1018.8
20260502041754 8 255 3.2 4.8 0.00 0.00 0.00 70 1018.9
20260502041251 8 250 3.2 6.4 0.00 0.00 0.00 69 1018.8
20260502040748 8 156 0.0 1.6 0.00 0.00 0.00 69 1018.9
20260502040245 8 222 1.6 3.2 0.00 0.00 0.00 69 1018.8
20260502035741 8 243 1.6 3.2 0.00 0.00 0.00 69 1019.0
20260502035238 8 259 8.0 11.3 0.00 0.00 0.00 68 1019.0
20260502034735 8 234 3.2 4.8 0.00 0.00 0.00 68 1018.9
20260502034233 8 156 1.6 11.3 0.00 0.00 0.00 68 1018.9
20260502033731 9 219 1.6 3.2 0.00 0.00 0.00 71 1018.9
20260502033229 9 240 6.4 6.4 0.00 0.00 0.00 70 1019.0